QPF
0.12 0.16 0.17 0.11 0.07 0.05 0.04 0.05 0.06 0.06 0.05 0.04 0.04 0.05 0.05 0.03 0.02 0.03 0.03 0.04 0.05 0.06 0.07 0.07 0.05 0.04 0.03 0.02 0.02 0.03 0.03 0.03 0.02 0.02 0.01 0.01 0.01 0.01 0.01 0.01 0.01 0.00 0.00
0.11 0.15 0.16 0.14 0.09 0.07 0.06 0.05 0.06 0.08 0.08 0.06 0.06 0.06 0.06 0.05 0.04 0.04 0.04 0.04 0.05 0.06 0.07 0.07 0.06 0.05 0.05 0.04 0.04 0.03 0.03 0.02 0.03 0.02 0.01 0.01 0.01 0.01 0.01 0.01 0.00 0.00 0.00
0.14 0.13 0.13 0.12 0.13 0.13 0.10 0.08 0.06 0.09 0.10 0.08 0.07 0.08 0.06 0.04 0.05 0.05 0.04 0.05 0.06 0.06 0.07 0.08 0.07 0.06 0.06 0.06 0.05 0.04 0.03 0.02 0.02 0.02 0.01 0.01 0.01 0.01 0.01 0.01 0.01 0.00 0.00
0.14 0.14 0.11 0.09 0.10 0.14 0.14 0.11 0.08 0.08 0.09 0.09 0.07 0.08 0.07 0.06 0.05 0.05 0.06 0.06 0.06 0.06 0.05 0.07 0.07 0.05 0.06 0.06 0.06 0.05 0.04 0.03 0.02 0.02 0.02 0.01 0.01 0.01 0.01 0.01 0.01 0.01 0.00
0.14 0.14 0.13 0.10 0.09 0.10 0.12 0.12 0.11 0.10 0.08 0.08 0.07 0.06 0.07 0.07 0.06 0.06 0.06 0.06 0.05 0.04 0.04 0.04 0.05 0.05 0.09 0.07 0.06 0.06 0.06 0.04 0.03 0.03 0.03 0.02 0.02 0.01 0.01 0.01 0.01 0.01 0.00
0.11 0.15 0.13 0.11 0.09 0.09 0.12 0.14 0.14 0.14 0.11 0.08 0.08 0.07 0.07 0.07 0.06 0.05 0.04 0.04 0.04 0.03 0.02 0.03 0.03 0.05 0.10 0.07 0.05 0.07 0.07 0.06 0.05 0.04 0.03 0.02 0.02 0.01 0.01 0.01 0.01 0.01 0.00
0.07 0.12 0.13 0.12 0.10 0.09 0.09 0.15 0.19 0.20 0.17 0.12 0.09 0.08 0.08 0.09 0.07 0.04 0.03 0.02 0.03 0.02 0.02 0.03 0.03 0.04 0.06 0.05 0.04 0.05 0.06 0.06 0.05 0.04 0.03 0.02 0.02 0.02 0.01 0.01 0.01 0.01 0.01
0.07 0.09 0.10 0.10 0.11 0.11 0.10 0.10 0.14 0.20 0.21 0.18 0.14 0.11 0.09 0.08 0.06 0.05 0.04 0.03 0.03 0.02 0.02 0.03 0.02 0.03 0.03 0.03 0.03 0.03 0.04 0.05 0.04 0.04 0.04 0.03 0.02 0.02 0.02 0.02 0.01 0.01 0.01
0.06 0.08 0.11 0.10 0.09 0.11 0.12 0.11 0.09 0.11 0.15 0.16 0.14 0.12 0.10 0.07 0.05 0.03 0.03 0.03 0.04 0.04 0.04 0.03 0.03 0.03 0.02 0.02 0.02 0.02 0.02 0.03 0.04 0.04 0.04 0.03 0.02 0.02 0.02 0.02 0.02 0.01 0.01
0.05 0.06 0.09 0.08 0.07 0.08 0.09 0.08 0.08 0.07 0.08 0.10 0.10 0.08 0.06 0.04 0.04 0.04 0.03 0.02 0.02 0.03 0.03 0.04 0.04 0.04 0.03 0.02 0.02 0.02 0.02 0.02 0.02 0.04 0.04 0.03 0.02 0.02 0.03 0.03 0.02 0.02 0.01
0.05 0.06 0.06 0.06 0.06 0.06 0.06 0.06 0.07 0.07 0.06 0.07 0.07 0.07 0.05 0.03 0.03 0.03 0.03 0.02 0.02 0.02 0.03 0.03 0.04 0.04 0.03 0.03 0.02 0.02 0.02 0.02 0.02 0.02 0.03 0.03 0.03 0.02 0.03 0.03 0.03 0.02 0.02
0.06 0.07 0.07 0.05 0.05 0.05 0.05 0.05 0.05 0.05 0.05 0.05 0.06 0.06 0.06 0.04 0.03 0.02 0.02 0.02 0.02 0.02 0.02 0.03 0.04 0.04 0.03 0.02 0.02 0.02 0.02 0.02 0.02 0.01 0.02 0.03 0.02 0.02 0.02 0.02 0.02 0.02 0.02
0.03 0.05 0.06 0.06 0.07 0.06 0.05 0.05 0.06 0.06 0.05 0.05 0.06 0.06 0.05 0.04 0.03 0.03 0.03 0.02 0.02 0.02 0.02 0.03 0.03 0.04 0.04 0.04 0.03 0.02 0.02 0.02 0.01 0.01 0.02 0.02 0.02 0.02 0.02 0.02 0.02 0.02 0.02
0.03 0.04 0.04 0.05 0.06 0.07 0.06 0.05 0.06 0.06 0.06 0.06 0.06 0.05 0.04 0.03 0.03 0.03 0.03 0.03 0.03 0.03 0.03 0.03 0.03 0.03 0.03 0.04 0.04 0.04 0.02 0.02 0.02 0.02 0.01 0.02 0.02 0.02 0.01 0.02 0.02 0.03 0.03
0.03 0.03 0.04 0.04 0.04 0.05 0.07 0.06 0.05 0.05 0.06 0.06 0.06 0.06 0.05 0.03 0.02 0.02 0.02 0.02 0.02 0.03 0.03 0.03 0.03 0.03 0.02 0.02 0.03 0.03 0.03 0.02 0.02 0.02 0.01 0.01 0.02 0.02 0.01 0.01 0.02 0.03 0.04
0.03 0.03 0.04 0.03 0.03 0.03 0.05 0.05 0.05 0.04 0.05 0.05 0.05 0.05 0.05 0.04 0.03 0.02 0.02 0.02 0.03 0.02 0.02 0.02 0.02 0.03 0.03 0.02 0.03 0.03 0.02 0.02 0.01 0.01 0.01 0.01 0.01 0.02 0.02 0.01 0.01 0.02 0.02
0.04 0.04 0.04 0.03 0.03 0.03 0.03 0.03 0.04 0.04 0.05 0.06 0.05 0.05 0.05 0.04 0.03 0.02 0.02 0.02 0.02 0.03 0.03 0.02 0.02 0.02 0.02 0.03 0.03 0.02 0.02 0.02 0.02 0.01 0.01 0.01 0.01 0.02 0.02 0.02 0.01 0.01 0.02
0.03 0.03 0.03 0.04 0.03 0.03 0.03 0.03 0.03 0.03 0.04 0.06 0.06 0.05 0.05 0.04 0.03 0.02 0.02 0.02 0.02 0.02 0.03 0.02 0.02 0.02 0.02 0.02 0.02 0.02 0.02 0.02 0.02 0.02 0.02 0.02 0.02 0.02 0.02 0.03 0.02 0.02 0.02
0.02 0.02 0.02 0.03 0.04 0.04 0.03 0.03 0.03 0.03 0.04 0.04 0.06 0.05 0.03 0.03 0.02 0.02 0.02 0.02 0.02 0.02 0.02 0.02 0.02 0.02 0.03 0.03 0.02 0.02 0.02 0.02 0.02 0.02 0.02 0.02 0.03 0.03 0.03 0.03 0.03 0.02 0.02
0.02 0.02 0.02 0.02 0.03 0.03 0.04 0.04 0.04 0.04 0.04 0.05 0.05 0.05 0.04 0.03 0.02 0.02 0.01 0.01 0.02 0.02 0.01 0.02 0.02 0.02 0.03 0.03 0.03 0.03 0.03 0.02 0.02 0.02 0.02 0.02 0.03 0.04 0.04 0.04 0.04 0.04 0.03
0.03 0.02 0.01 0.02 0.02 0.03 0.04 0.04 0.04 0.04 0.04 0.05 0.04 0.05 0.05 0.05 0.04 0.03 0.02 0.03 0.02 0.02 0.02 0.02 0.02 0.02 0.03 0.03 0.03 0.03 0.04 0.04 0.03 0.02 0.03 0.03 0.04 0.04 0.05 0.05 0.04 0.04 0.04
0.04 0.04 0.02 0.02 0.03 0.03 0.05 0.05 0.05 0.05 0.04 0.04 0.04 0.04 0.04 0.05 0.05 0.05 0.04 0.04 0.04 0.03 0.03 0.03 0.03 0.02 0.02 0.02 0.02 0.02 0.03 0.04 0.04 0.03 0.03 0.03 0.04 0.05 0.05 0.05 0.05 0.04 0.04
0.04 0.04 0.03 0.03 0.03 0.03 0.04 0.05 0.05 0.05 0.05 0.05 0.05 0.04 0.04 0.04 0.04 0.04 0.04 0.04 0.03 0.03 0.03 0.03 0.03 0.02 0.02 0.02 0.02 0.02 0.02 0.03 0.03 0.03 0.03 0.04 0.04 0.05 0.05 0.05 0.05 0.04 0.04
0.04 0.04 0.04 0.04 0.04 0.04 0.04 0.05 0.06 0.05 0.05 0.05 0.04 0.04 0.04 0.03 0.03 0.04 0.03 0.03 0.02 0.02 0.02 0.02 0.02 0.01 0.01 0.01 0.01 0.02 0.02 0.03 0.03 0.03 0.03 0.04 0.04 0.04 0.04 0.04 0.04 0.04 0.04
0.04 0.04 0.04 0.05 0.05 0.06 0.07 0.07 0.07 0.06 0.05 0.04 0.04 0.04 0.04 0.04 0.04 0.03 0.02 0.02 0.02 0.01 0.01 0.01 0.01 0.01 0.01 0.01 0.01 0.02 0.02 0.03 0.03 0.03 0.03 0.03 0.03 0.03 0.03 0.03 0.03 0.03 0.03
0.04 0.05 0.05 0.05 0.05 0.05 0.06 0.05 0.05 0.05 0.05 0.04 0.03 0.03 0.04 0.03 0.03 0.02 0.02 0.01 0.01 0.01 0.01 0.01 0.01 0.01 0.01 0.01 0.01 0.02 0.02 0.02 0.02 0.03 0.02 0.03 0.03 0.03 0.03 0.03 0.03 0.03 0.03
MSLP
1014.68 1014.37 1014.04 1013.75 1013.52 1013.40 1013.40 1013.53 1013.76 1014.05 1014.36 1014.65 1014.91 1015.12 1015.30 1015.49 1015.71 1015.99 1016.34 1016.73 1017.15 1017.56 1017.93 1018.24 1018.48 1018.66 1018.82 1018.99 1019.18 1019.44 1019.74 1020.10 1020.47 1020.84 1021.19 1021.51 1021.79 1022.04 1022.29 1022.53 1022.79 1023.06 1023.34
1014.83 1014.47 1014.07 1013.69 1013.36 1013.14 1013.05 1013.09 1013.25 1013.50 1013.80 1014.12 1014.42 1014.70 1014.96 1015.22 1015.51 1015.84 1016.21 1016.61 1017.03 1017.43 1017.78 1018.07 1018.30 1018.48 1018.63 1018.79 1018.99 1019.24 1019.57 1019.95 1020.37 1020.80 1021.22 1021.61 1021.96 1022.27 1022.56 1022.83 1023.10 1023.37 1023.65
1014.91 1014.50 1014.04 1013.59 1013.18 1012.88 1012.71 1012.68 1012.80 1013.03 1013.35 1013.71 1014.07 1014.43 1014.77 1015.11 1015.45 1015.81 1016.19 1016.59 1016.98 1017.35 1017.67 1017.94 1018.15 1018.31 1018.45 1018.61 1018.80 1019.07 1019.40 1019.81 1020.27 1020.76 1021.24 1021.70 1022.11 1022.49 1022.81 1023.11 1023.39 1023.66 1023.92
1014.92 1014.47 1013.97 1013.47 1013.01 1012.65 1012.43 1012.37 1012.47 1012.71 1013.06 1013.47 1013.91 1014.34 1014.76 1015.16 1015.54 1015.92 1016.29 1016.66 1017.02 1017.35 1017.64 1017.87 1018.06 1018.21 1018.34 1018.48 1018.67 1018.93 1019.27 1019.69 1020.17 1020.70 1021.23 1021.75 1022.22 1022.64 1023.01 1023.33 1023.62 1023.88 1024.13
1014.87 1014.40 1013.88 1013.36 1012.89 1012.51 1012.27 1012.20 1012.30 1012.56 1012.95 1013.41 1013.91 1014.42 1014.90 1015.35 1015.76 1016.14 1016.49 1016.83 1017.14 1017.42 1017.67 1017.88 1018.04 1018.18 1018.30 1018.43 1018.61 1018.85 1019.18 1019.59 1020.08 1020.62 1021.18 1021.74 1022.26 1022.73 1023.13 1023.47 1023.77 1024.03 1024.27
1014.80 1014.33 1013.82 1013.30 1012.84 1012.47 1012.24 1012.19 1012.30 1012.59 1013.01 1013.52 1014.07 1014.62 1015.15 1015.62 1016.04 1016.41 1016.74 1017.04 1017.31 1017.55 1017.77 1017.95 1018.10 1018.22 1018.34 1018.46 1018.62 1018.83 1019.13 1019.52 1019.99 1020.52 1021.09 1021.67 1022.22 1022.72 1023.16 1023.53 1023.84 1024.11 1024.35
1014.74 1014.29 1013.80 1013.32 1012.89 1012.55 1012.36 1012.32 1012.46 1012.76 1013.20 1013.73 1014.30 1014.88 1015.42 1015.91 1016.32 1016.68 1016.98 1017.25 1017.49 1017.70 1017.89 1018.06 1018.20 1018.32 1018.43 1018.54 1018.67 1018.86 1019.12 1019.47 1019.90 1020.41 1020.97 1021.54 1022.11 1022.64 1023.10 1023.50 1023.84 1024.13 1024.39
1014.72 1014.29 1013.84 1013.41 1013.03 1012.75 1012.58 1012.57 1012.72 1013.02 1013.45 1013.98 1014.54 1015.11 1015.65 1016.13 1016.53 1016.87 1017.15 1017.39 1017.61 1017.81 1018.00 1018.16 1018.31 1018.44 1018.54 1018.65 1018.76 1018.92 1019.13 1019.43 1019.81 1020.28 1020.82 1021.39 1021.96 1022.50 1023.00 1023.43 1023.79 1024.11 1024.39
1014.73 1014.34 1013.95 1013.58 1013.26 1013.02 1012.89 1012.89 1013.03 1013.31 1013.71 1014.19 1014.72 1015.26 1015.76 1016.22 1016.61 1016.93 1017.20 1017.43 1017.65 1017.85 1018.04 1018.22 1018.39 1018.53 1018.64 1018.75 1018.85 1018.97 1019.15 1019.40 1019.74 1020.16 1020.66 1021.21 1021.78 1022.34 1022.86 1023.32 1023.72 1024.06 1024.37
1014.78 1014.44 1014.10 1013.79 1013.53 1013.34 1013.22 1013.22 1013.33 1013.56 1013.89 1014.31 1014.78 1015.26 1015.73 1016.15 1016.52 1016.84 1017.11 1017.35 1017.57 1017.79 1018.00 1018.21 1018.40 1018.57 1018.71 1018.82 1018.92 1019.03 1019.18 1019.39 1019.68 1020.06 1020.53 1021.05 1021.61 1022.17 1022.71 1023.20 1023.63 1024.00 1024.34
1014.85 1014.55 1014.28 1014.03 1013.82 1013.65 1013.54 1013.51 1013.57 1013.73 1013.98 1014.32 1014.71 1015.12 1015.54 1015.93 1016.29 1016.61 1016.89 1017.15 1017.40 1017.64 1017.89 1018.13 1018.36 1018.56 1018.73 1018.86 1018.98 1019.08 1019.22 1019.40 1019.66 1020.00 1020.43 1020.93 1021.47 1022.03 1022.57 1023.08 1023.53 1023.93 1024.28
1014.91 1014.68 1014.46 1014.27 1014.09 1013.94 1013.82 1013.75 1013.75 1013.82 1013.98 1014.22 1014.52 1014.87 1015.24 1015.60 1015.96 1016.28 1016.59 1016.88 1017.16 1017.45 1017.74 1018.02 1018.29 1018.53 1018.74 1018.91 1019.04 1019.16 1019.29 1019.46 1019.70 1020.01 1020.40 1020.87 1021.39 1021.93 1022.47 1022.97 1023.43 1023.84 1024.21
1014.96 1014.78 1014.62 1014.47 1014.32 1014.18 1014.04 1013.93 1013.86 1013.85 1013.91 1014.06 1014.28 1014.56 1014.89 1015.23 1015.58 1015.92 1016.26 1016.59 1016.92 1017.25 1017.58 1017.91 1018.23 1018.52 1018.77 1018.98 1019.15 1019.29 1019.43 1019.60 1019.81 1020.10 1020.46 1020.89 1021.38 1021.89 1022.40 1022.89 1023.34 1023.75 1024.12
1014.98 1014.86 1014.75 1014.64 1014.52 1014.37 1014.22 1014.06 1013.93 1013.84 1013.83 1013.89 1014.04 1014.27 1014.56 1014.89 1015.24 1015.60 1015.97 1016.34 1016.71 1017.09 1017.48 1017.86 1018.22 1018.56 1018.86 1019.11 1019.32 1019.49 1019.65 1019.82 1020.03 1020.29 1020.62 1021.00 1021.44 1021.91 1022.39 1022.85 1023.28 1023.68 1024.03
1014.96 1014.90 1014.84 1014.77 1014.67 1014.53 1014.36 1014.17 1014.00 1013.86 1013.78 1013.78 1013.88 1014.06 1014.32 1014.63 1014.99 1015.37 1015.77 1016.18 1016.59 1017.02 1017.44 1017.87 1018.29 1018.67 1019.02 1019.32 1019.57 1019.77 1019.95 1020.13 1020.33 1020.57 1020.86 1021.21 1021.60 1022.02 1022.45 1022.88 1023.27 1023.64 1023.98
1014.89 1014.89 1014.89 1014.85 1014.78 1014.65 1014.49 1014.30 1014.10 1013.93 1013.81 1013.78 1013.83 1013.98 1014.21 1014.51 1014.87 1015.26 1015.68 1016.11 1016.56 1017.02 1017.49 1017.96 1018.42 1018.85 1019.24 1019.59 1019.88 1020.12 1020.33 1020.51 1020.71 1020.94 1021.20 1021.50 1021.84 1022.22 1022.59 1022.97 1023.33 1023.67 1023.98
1014.77 1014.83 1014.87 1014.88 1014.84 1014.76 1014.62 1014.44 1014.25 1014.08 1013.96 1013.91 1013.94 1014.06 1014.27 1014.55 1014.89 1015.27 1015.69 1016.14 1016.60 1017.09 1017.59 1018.09 1018.59 1019.06 1019.49 1019.88 1020.21 1020.48 1020.72 1020.93 1021.13 1021.34 1021.58 1021.85 1022.15 1022.48 1022.82 1023.15 1023.47 1023.78 1024.07
1014.59 1014.70 1014.79 1014.85 1014.87 1014.83 1014.75 1014.62 1014.47 1014.33 1014.22 1014.17 1014.19 1014.29 1014.47 1014.72 1015.03 1015.39 1015.79 1016.22 1016.69 1017.18 1017.69 1018.21 1018.74 1019.24 1019.71 1020.13 1020.50 1020.81 1021.07 1021.30 1021.52 1021.74 1021.97 1022.22 1022.50 1022.79 1023.09 1023.39 1023.68 1023.96 1024.23
1014.35 1014.51 1014.65 1014.77 1014.85 1014.88 1014.87 1014.81 1014.72 1014.63 1014.56 1014.53 1014.55 1014.63 1014.78 1014.99 1015.26 1015.58 1015.94 1016.34 1016.78 1017.26 1017.77 1018.29 1018.83 1019.35 1019.85 1020.30 1020.70 1021.04 1021.34 1021.60 1021.84 1022.08 1022.32 1022.57 1022.84 1023.12 1023.40 1023.68 1023.95 1024.20 1024.44
1014.06 1014.25 1014.44 1014.62 1014.77 1014.89 1014.95 1014.98 1014.98 1014.95 1014.93 1014.93 1014.96 1015.03 1015.15 1015.32 1015.53 1015.79 1016.10 1016.45 1016.85 1017.30 1017.78 1018.30 1018.83 1019.36 1019.87 1020.35 1020.77 1021.15 1021.48 1021.78 1022.06 1022.33 1022.60 1022.87 1023.15 1023.43 1023.71 1023.98 1024.22 1024.46 1024.67
1013.73 1013.95 1014.18 1014.42 1014.64 1014.83 1014.98 1015.10 1015.18 1015.23 1015.27 1015.31 1015.36 1015.43 1015.52 1015.65 1015.80 1016.00 1016.25 1016.55 1016.90 1017.30 1017.76 1018.25 1018.77 1019.29 1019.80 1020.29 1020.73 1021.14 1021.51 1021.85 1022.17 1022.48 1022.78 1023.10 1023.40 1023.70 1023.99 1024.25 1024.48 1024.70 1024.89
1013.38 1013.61 1013.88 1014.16 1014.44 1014.70 1014.93 1015.13 1015.29 1015.42 1015.53 1015.61 1015.69 1015.76 1015.84 1015.93 1016.05 1016.20 1016.39 1016.64 1016.94 1017.30 1017.71 1018.17 1018.67 1019.17 1019.68 1020.16 1020.62 1021.05 1021.45 1021.82 1022.18 1022.54 1022.90 1023.25 1023.59 1023.91 1024.21 1024.48 1024.70 1024.90 1025.06
1013.03 1013.27 1013.55 1013.86 1014.17 1014.48 1014.78 1015.04 1015.28 1015.48 1015.64 1015.78 1015.89 1015.99 1016.07 1016.16 1016.25 1016.37 1016.53 1016.74 1017.00 1017.32 1017.70 1018.13 1018.60 1019.08 1019.57 1020.05 1020.51 1020.95 1021.37 1021.77 1022.17 1022.57 1022.97 1023.35 1023.73 1024.08 1024.39 1024.66 1024.87 1025.05 1025.18
1012.70 1012.93 1013.21 1013.53 1013.86 1014.19 1014.52 1014.83 1015.11 1015.36 1015.59 1015.78 1015.94 1016.08 1016.19 1016.30 1016.40 1016.52 1016.67 1016.87 1017.12 1017.42 1017.78 1018.19 1018.63 1019.09 1019.56 1020.03 1020.48 1020.92 1021.35 1021.77 1022.19 1022.61 1023.04 1023.45 1023.85 1024.21 1024.53 1024.80 1025.00 1025.16 1025.26
1012.43 1012.64 1012.90 1013.19 1013.51 1013.84 1014.17 1014.49 1014.81 1015.10 1015.38 1015.62 1015.84 1016.04 1016.21 1016.36 1016.51 1016.66 1016.84 1017.06 1017.31 1017.62 1017.98 1018.38 1018.81 1019.25 1019.71 1020.16 1020.60 1021.03 1021.45 1021.87 1022.30 1022.73 1023.15 1023.57 1023.97 1024.34 1024.66 1024.92 1025.11 1025.25 1025.33
1012.23 1012.41 1012.63 1012.89 1013.17 1013.46 1013.77 1014.09 1014.41 1014.73 1015.05 1015.35 1015.63 1015.89 1016.14 1016.36 1016.58 1016.80 1017.03 1017.29 1017.59 1017.92 1018.30 1018.71 1019.14 1019.58 1020.02 1020.46 1020.89 1021.30 1021.71 1022.11 1022.52 1022.93 1023.34 1023.75 1024.13 1024.48 1024.79 1025.03 1025.21 1025.33 1025.40
Thickness
5647 5648 5649 5649 5649 5650 5650 5651 5652 5653 5655 5655 5657 5658 5659 5661 5661 5662 5662 5663 5664 5665 5664 5664 5664 5664 5664 5664 5663 5663 5662 5661 5661 5660 5659 5658 5657 5656 5655 5654 5653 5651 5650
5640 5640 5641 5641 5642 5643 5644 5644 5645 5647 5648 5649 5650 5652 5653 5654 5655 5655 5655 5656 5657 5658 5658 5658 5658 5658 5658 5658 5658 5657 5656 5656 5655 5654 5654 5653 5652 5651 5650 5648 5647 5645 5644
5631 5632 5633 5633 5634 5635 5636 5636 5637 5639 5640 5641 5642 5644 5645 5647 5648 5648 5648 5649 5650 5650 5651 5652 5652 5652 5653 5652 5652 5652 5651 5650 5649 5649 5648 5647 5646 5644 5643 5642 5641 5639 5638
5624 5624 5624 5625 5625 5626 5627 5628 5629 5630 5631 5632 5633 5635 5637 5639 5640 5641 5641 5642 5642 5643 5643 5644 5645 5645 5646 5646 5646 5646 5645 5644 5643 5642 5642 5641 5640 5638 5637 5636 5634 5633 5631
5616 5616 5616 5616 5616 5616 5617 5619 5619 5621 5621 5622 5623 5625 5627 5629 5631 5633 5634 5634 5634 5635 5635 5636 5637 5638 5638 5639 5639 5639 5638 5638 5637 5636 5635 5634 5633 5632 5631 5630 5628 5627 5625
5608 5607 5607 5607 5607 5607 5608 5609 5610 5611 5612 5613 5614 5614 5615 5618 5621 5623 5625 5625 5626 5626 5627 5627 5628 5629 5630 5631 5631 5631 5631 5631 5630 5629 5629 5627 5626 5625 5624 5623 5622 5620 5618
5600 5599 5598 5597 5597 5597 5599 5601 5601 5601 5600 5602 5602 5601 5603 5607 5609 5612 5614 5616 5617 5618 5619 5619 5620 5620 5621 5622 5623 5623 5624 5623 5623 5622 5621 5620 5619 5618 5617 5617 5615 5613 5612
5592 5592 5590 5589 5588 5588 5589 5590 5591 5590 5590 5591 5592 5591 5590 5592 5597 5600 5603 5605 5607 5609 5610 5610 5611 5612 5613 5614 5614 5615 5616 5616 5615 5615 5614 5613 5612 5611 5610 5609 5608 5607 5605
5584 5584 5583 5581 5580 5580 5580 5581 5582 5583 5581 5581 5583 5583 5582 5583 5584 5588 5592 5595 5597 5598 5600 5601 5603 5605 5605 5606 5606 5607 5608 5608 5608 5607 5607 5606 5605 5604 5603 5602 5601 5599 5598
5576 5575 5575 5573 5572 5572 5572 5573 5573 5573 5572 5572 5572 5575 5577 5579 5577 5576 5579 5582 5585 5588 5590 5592 5594 5595 5596 5597 5598 5598 5599 5599 5599 5599 5598 5598 5597 5596 5595 5594 5593 5592 5590
5567 5567 5567 5565 5564 5563 5564 5564 5564 5564 5564 5565 5565 5565 5567 5569 5572 5569 5569 5570 5573 5577 5580 5582 5584 5585 5586 5588 5589 5589 5589 5590 5590 5590 5590 5589 5589 5588 5586 5586 5585 5583 5581
5558 5558 5558 5557 5556 5555 5555 5555 5555 5555 5556 5556 5556 5557 5558 5560 5561 5562 5562 5561 5562 5565 5569 5572 5574 5576 5577 5578 5579 5580 5580 5580 5580 5581 5581 5581 5580 5579 5578 5577 5575 5574 5573
5549 5550 5549 5548 5547 5547 5546 5546 5546 5546 5546 5547 5547 5548 5549 5552 5553 5555 5554 5552 5552 5554 5558 5561 5564 5566 5567 5568 5569 5570 5570 5570 5570 5571 5571 5571 5571 5570 5568 5567 5566 5565 5563
5541 5541 5540 5539 5538 5538 5537 5537 5537 5536 5536 5537 5538 5539 5539 5542 5544 5545 5545 5543 5541 5543 5546 5550 5553 5555 5557 5557 5558 5559 5559 5560 5560 5560 5561 5561 5561 5560 5559 5557 5556 5554 5553
5533 5532 5531 5530 5529 5529 5528 5528 5527 5527 5527 5528 5528 5529 5530 5532 5533 5535 5537 5536 5534 5533 5536 5539 5540 5543 5545 5546 5547 5547 5548 5548 5549 5549 5550 5550 5549 5549 5548 5547 5545 5543 5541
5523 5522 5521 5520 5520 5519 5518 5518 5518 5518 5517 5518 5518 5519 5520 5521 5523 5525 5526 5527 5527 5527 5527 5529 5529 5531 5532 5534 5535 5536 5537 5537 5538 5538 5539 5539 5538 5538 5537 5536 5534 5532 5531
5514 5514 5512 5511 5510 5510 5509 5509 5509 5509 5509 5509 5510 5511 5512 5512 5514 5515 5516 5516 5517 5518 5517 5517 5517 5519 5520 5521 5522 5523 5525 5525 5527 5527 5527 5528 5527 5527 5526 5525 5523 5521 5519
5505 5505 5503 5502 5502 5501 5501 5500 5501 5501 5501 5501 5502 5502 5503 5504 5504 5505 5506 5506 5507 5508 5506 5505 5504 5505 5507 5509 5510 5511 5513 5513 5515 5515 5516 5516 5516 5515 5514 5513 5512 5510 5508
5496 5495 5494 5493 5493 5493 5492 5492 5492 5493 5493 5493 5493 5494 5495 5495 5495 5496 5496 5496 5496 5497 5496 5495 5494 5494 5495 5497 5497 5499 5500 5501 5502 5503 5504 5504 5503 5502 5501 5501 5500 5498 5496
5487 5486 5486 5485 5485 5484 5484 5484 5484 5484 5484 5484 5485 5486 5486 5487 5487 5487 5487 5487 5486 5485 5485 5484 5483 5483 5483 5484 5485 5486 5487 5489 5490 5491 5491 5491 5491 5490 5489 5488 5487 5486 5483
5478 5477 5477 5476 5476 5476 5476 5475 5475 5475 5475 5476 5476 5477 5478 5479 5479 5479 5479 5478 5477 5476 5474 5473 5473 5473 5472 5472 5473 5475 5475 5476 5477 5477 5478 5479 5479 5478 5476 5475 5473 5471 5469
5469 5468 5467 5467 5467 5467 5467 5466 5466 5466 5467 5467 5467 5468 5468 5469 5469 5470 5470 5470 5469 5467 5466 5465 5465 5465 5465 5464 5464 5464 5464 5463 5464 5466 5465 5466 5465 5464 5464 5462 5460 5457 5455
5460 5459 5459 5458 5457 5458 5458 5458 5458 5457 5457 5457 5458 5458 5459 5459 5460 5460 5460 5460 5459 5458 5459 5458 5457 5457 5456 5457 5455 5454 5454 5453 5454 5453 5451 5452 5452 5452 5451 5449 5446 5443 5440
5451 5450 5450 5449 5449 5449 5449 5449 5449 5448 5448 5448 5449 5449 5449 5449 5449 5450 5450 5449 5448 5448 5449 5449 5449 5448 5448 5447 5446 5445 5444 5442 5441 5440 5438 5438 5439 5438 5437 5434 5431 5429 5426
5442 5442 5441 5440 5440 5439 5439 5440 5440 5439 5439 5439 5439 5440 5440 5440 5441 5440 5440 5439 5438 5437 5438 5438 5438 5437 5437 5437 5435 5432 5430 5428 5427 5427 5425 5423 5424 5422 5421 5420 5417 5414 5412
5433 5432 5431 5431 5430 5430 5430 5430 5431 5430 5429 5429 5429 5429 5430 5431 5431 5430 5429 5429 5428 5427 5427 5427 5426 5425 5425 5424 5423 5421 5419 5416 5414 5413 5412 5410 5409 5406 5405 5405 5402 5400 5398